Theta_e
289 285 281 284 286 286 285 283 282 286 289 285 287 288 290 293 293 292 292 294 296 297 301 303 305 307 308 315 343 345 345 346 347 344 343 343 341 342 342 342 343 340 338 340
286 281 287 290 289 287 285 283 282 286 289 289 287 288 291 292 292 292 293 294 295 295 299 302 303 304 305 312 341 342 344 345 346 345 345 343 342 343 342 341 341 341 337 337
283 286 291 290 287 286 284 283 283 284 289 289 285 285 286 292 291 293 294 294 295 296 298 300 302 304 305 309 335 340 342 343 346 346 344 338 339 336 334 335 337 339 339 336
285 289 290 287 286 287 282 288 288 287 284 279 287 278 283 288 290 293 296 298 302 302 305 306 307 307 307 308 324 338 340 341 344 344 340 337 335 333 335 336 338 339 340 337
286 287 287 285 287 289 285 290 288 287 283 280 281 276 281 290 291 294 298 301 302 304 305 306 307 308 310 310 307 334 337 338 342 342 340 337 335 336 335 336 335 337 338 338
288 292 289 288 292 291 292 287 286 282 279 272 279 279 279 289 291 294 296 298 299 299 301 304 307 310 312 312 311 330 334 335 339 340 338 336 334 334 330 331 332 335 337 337
286 288 290 293 288 290 287 282 272 272 272 273 281 281 281 293 296 295 294 295 297 298 298 300 303 306 310 312 314 312 330 331 336 337 336 335 334 332 330 330 332 333 335 336
280 280 288 292 288 284 284 282 275 268 271 275 285 278 283 296 297 296 296 295 296 297 296 297 300 303 308 310 312 314 329 330 333 335 334 334 335 332 331 331 332 333 335 336
281 283 291 293 293 290 285 283 289 284 283 280 278 283 291 295 292 292 293 293 293 295 296 297 300 302 307 307 308 312 315 330 331 334 336 335 334 335 333 333 333 334 337 337
286 283 289 292 292 293 288 292 283 280 275 274 278 280 280 288 288 289 290 290 291 293 295 296 297 300 303 305 306 308 311 316 321 334 334 337 336 336 336 336 335 336 336 338
288 287 285 288 285 283 284 283 287 288 283 278 274 279 290 288 289 288 289 291 291 292 294 294 295 297 300 301 302 305 306 308 313 318 328 336 337 338 337 337 338 338 340 339
289 286 283 283 290 292 289 287 287 282 278 284 282 281 293 291 291 291 290 291 292 293 294 295 295 296 297 297 300 302 304 305 308 311 318 329 339 337 338 340 338 340 340 342
289 282 281 279 283 289 288 290 290 289 287 282 280 283 294 293 291 292 290 291 292 292 294 294 295 294 295 296 297 300 303 304 306 308 312 320 340 340 337 339 340 339 340 343
297 286 281 276 282 288 286 288 289 288 281 281 282 284 288 290 289 290 291 292 292 293 293 293 294 294 295 296 297 298 301 304 304 306 308 313 319 327 341 340 341 340 341 342
290 282 282 285 287 287 286 286 288 287 287 282 283 284 288 290 290 290 291 292 292 292 292 293 293 294 295 295 296 298 299 302 303 304 305 310 315 321 330 339 340 341 340 342
291 285 288 286 289 288 285 287 289 288 286 285 286 285 291 292 292 290 291 291 291 292 292 293 294 294 294 295 295 297 298 300 303 302 304 309 314 319 322 333 339 339 339 339
289 288 287 282 286 283 279 287 287 286 287 286 282 287 290 289 289 290 291 292 291 292 292 293 294 294 295 296 296 296 298 301 301 301 304 307 311 317 320 329 332 334 335 336
287 289 288 284 281 271 283 290 290 288 288 289 290 290 290 289 291 292 293 292 292 293 293 293 294 295 296 297 298 298 300 300 300 300 302 307 310 314 320 329 331 330 332 332
289 289 286 276 279 281 283 289 286 286 284 290 288 290 291 290 291 291 294 293 294 294 294 294 295 296 297 298 299 299 299 299 299 301 303 306 309 313 318 328 328 328 328 329
292 292 287 281 278 274 278 290 291 290 280 290 289 290 289 289 283 286 293 294 295 295 295 295 296 297 297 298 299 299 299 299 300 302 305 307 310 312 315 323 326 329 329 329
286 286 284 282 279 283 286 290 290 275 279 289 291 291 289 286 288 292 294 294 295 295 295 296 296 295 297 298 299 299 300 300 304 306 307 309 311 312 315 318 328 328 327 327
282 281 279 282 279 275 290 288 281 285 287 290 292 292 291 291 292 293 293 293 294 294 294 295 294 295 297 298 299 298 300 305 308 310 310 312 314 318 320 320 324 328 325 325
280 284 279 280 279 286 289 289 290 289 288 292 293 294 293 292 293 292 291 293 293 293 294 294 294 295 297 298 299 298 299 303 307 311 314 316 318 316 317 320 323 325 325 322
287 289 285 285 286 287 289 291 293 291 291 294 295 294 294 293 292 288 289 291 292 293 293 293 293 294 295 297 298 299 300 304 305 305 307 310 309 307 306 311 314 322 322 319
285 288 286 284 287 288 290 290 291 291 292 294 296 295 294 290 288 287 287 290 292 293 293 293 293 293 294 298 298 298 299 301 302 303 304 304 302 301 298 295 294 306 305 313
286 285 284 282 288 288 288 289 291 291 291 293 294 292 291 291 288 287 287 290 292 292 292 292 292 293 294 297 297 297 298 298 298 300 301 302 303 302 301 299 296 293 293 294
Wind_Speed
3 5 1 6 5 8 6 6 10 13 8 5 14 19 16 16 15 18 13 13 10 11 15 11 14 13 16 9 14 16 17 18 15 14 13 12 11 9 9 8 10 11 11 12
6 1 4 6 6 3 4 6 8 9 5 9 12 23 19 18 15 18 16 11 13 8 14 15 11 12 13 10 15 18 20 19 18 14 14 9 10 8 8 7 9 11 11 11
4 2 2 2 2 5 3 6 6 10 17 6 6 17 6 17 8 14 16 12 10 8 11 11 12 12 13 9 11 18 21 21 21 20 11 7 7 5 6 9 9 11 14 12
3 3 4 5 1 4 4 2 7 15 7 7 7 16 2 9 14 12 14 12 12 10 11 10 14 13 13 13 9 13 19 21 19 19 16 19 15 12 11 9 9 10 13 12
5 4 6 3 2 2 8 9 13 13 7 4 1 1 7 7 12 18 17 18 18 17 14 15 15 15 13 12 10 10 15 17 19 20 20 16 14 11 6 7 12 13 12 14
5 4 1 2 4 3 10 5 10 3 2 2 4 1 4 4 4 12 17 17 18 21 21 17 16 15 15 16 16 6 13 14 17 18 17 20 19 14 9 11 10 9 8 9
8 5 4 2 5 6 10 8 6 8 5 6 3 5 8 3 4 10 16 17 17 18 19 20 21 20 19 21 19 13 8 13 16 17 17 17 15 13 15 14 12 13 9 8
4 8 4 4 1 3 3 3 3 5 4 9 10 6 7 5 7 10 12 12 16 17 16 18 20 19 17 20 21 19 7 9 13 16 18 15 16 10 10 11 9 10 11 12
2 6 1 7 2 1 2 1 3 6 5 5 4 7 2 6 12 16 14 15 16 16 16 18 19 18 18 19 20 20 16 7 7 12 14 17 15 15 12 11 10 9 8 7
3 7 1 3 2 2 0 1 2 2 5 6 6 6 5 11 15 18 22 21 21 20 21 17 18 19 19 18 18 19 18 16 12 4 6 10 13 15 13 12 13 12 10 10
5 4 6 4 3 4 2 1 1 4 3 4 6 6 3 5 10 13 17 19 18 19 16 17 17 17 15 18 17 18 18 17 16 13 9 6 10 9 7 9 10 11 12 12
6 4 4 10 7 6 5 4 3 3 3 5 4 7 5 5 7 15 18 17 18 15 16 14 17 16 17 16 17 16 17 16 15 14 12 9 7 8 7 9 10 10 12 11
5 2 5 9 6 2 0 4 5 6 4 8 6 5 2 9 14 13 17 18 17 17 18 17 15 14 14 17 15 15 15 15 15 16 15 13 6 11 11 9 9 10 11 12
8 3 7 7 7 8 10 9 10 7 4 5 10 22 13 14 13 16 16 18 15 18 21 18 18 15 15 12 14 14 14 13 15 14 14 12 8 4 8 11 12 12 13 12
7 6 6 11 16 17 17 17 14 12 6 6 9 20 18 9 13 16 16 16 18 20 22 20 19 17 16 17 14 13 12 13 12 14 14 13 11 6 4 8 10 10 13 13
2 4 4 8 15 11 15 13 12 7 5 11 15 20 6 12 13 16 17 17 17 18 23 20 20 19 18 14 15 14 13 14 13 13 13 15 13 8 4 5 8 11 11 11
6 2 2 6 4 9 6 7 8 4 6 7 11 9 9 11 15 15 16 18 18 19 22 20 19 18 16 14 14 14 12 12 13 12 14 13 12 10 5 4 5 8 12 12
6 4 2 6 7 3 4 2 3 8 12 12 11 8 10 13 13 16 15 14 18 18 20 18 15 17 16 14 14 14 12 10 12 14 14 12 12 8 7 3 7 7 8 12
6 5 3 2 2 9 3 5 4 4 10 4 3 7 10 11 15 9 8 16 20 13 17 15 16 17 16 16 13 13 12 12 12 14 14 11 8 8 8 3 6 7 8 7
5 2 3 3 2 5 7 4 3 1 7 6 3 8 8 11 7 9 16 17 17 16 17 16 19 16 15 14 13 11 11 11 12 14 13 10 8 7 8 7 8 7 8 7
4 3 7 4 5 8 6 5 4 4 7 3 6 6 6 5 6 15 16 17 16 16 18 18 15 13 15 15 13 11 10 12 12 11 12 11 8 10 9 8 6 4 9 9
8 7 5 3 4 10 7 4 6 5 2 4 5 5 7 10 13 13 14 16 17 18 18 17 15 14 12 12 11 11 9 9 9 10 11 11 9 7 5 6 6 7 9 11
4 8 7 10 10 5 7 7 4 4 5 3 4 7 7 10 9 11 13 14 14 16 15 14 15 16 13 12 10 10 10 10 6 5 8 9 5 2 2 7 9 8 10 10
5 4 4 1 3 6 9 6 6 6 6 4 5 7 7 8 8 9 10 12 13 13 15 15 16 16 16 14 13 12 12 10 6 5 5 4 5 4 5 3 3 4 8 9
6 5 5 6 7 5 7 8 5 6 5 5 6 6 6 4 6 6 9 11 12 13 13 13 15 15 17 15 13 12 12 11 7 6 5 5 5 6 5 7 5 3 3 4
6 8 7 8 7 4 5 2 5 7 5 5 4 7 5 2 5 5 8 8 10 12 13 13 15 15 17 15 14 14 13 11 9 7 5 5 3 3 3 2 5 18 11 11
Wind_Direction
1 57 93 261 228 230 264 259 258 284 278 319 299 286 285 279 278 286 270 271 270 266 281 281 285 286 289 239 202 189 186 183 174 175 178 184 195 194 199 196 200 185 180 185
6 184 195 285 293 292 286 286 277 281 295 301 293 288 282 294 276 271 270 268 276 300 298 299 293 298 300 260 193 185 185 184 183 183 181 187 190 194 190 188 192 190 187 187
201 215 277 2 72 25 282 261 292 288 316 228 290 284 342 312 277 285 292 278 297 300 300 314 311 309 309 295 206 186 185 187 187 185 174 129 165 129 177 192 198 195 190 188
222 282 1 336 97 41 308 278 305 306 334 302 71 291 358 342 353 354 352 350 342 322 330 326 318 320 317 319 267 210 188 187 189 181 177 184 181 180 210 197 187 198 193 188
266 305 342 341 342 337 249 305 273 282 269 336 272 265 274 5 359 347 347 350 348 344 336 329 327 320 318 329 304 214 199 194 186 185 187 183 188 195 179 182 188 184 191 188
256 304 218 251 326 286 295 336 320 59 102 22 238 134 275 5 329 343 344 343 344 341 338 332 331 333 345 0 355 249 195 195 196 186 192 190 191 189 169 176 181 193 178 188
326 328 325 68 335 344 18 18 342 353 1 234 222 315 245 211 39 30 338 333 337 334 335 337 338 344 352 3 358 324 198 196 192 192 191 195 194 193 188 178 179 177 169 186
22 325 6 357 106 280 336 101 146 283 282 291 280 235 262 133 56 6 351 329 331 333 334 340 336 333 348 359 2 356 297 211 198 193 195 191 193 190 191 185 182 187 188 188
347 262 243 316 321 180 311 102 147 272 268 271 249 287 290 34 3 360 344 341 341 331 337 347 339 338 350 358 1 359 1 328 230 218 203 197 191 193 189 183 176 184 187 177
227 287 254 288 4 46 231 205 16 325 294 283 271 273 249 1 350 345 347 342 339 336 341 350 343 343 355 351 352 356 0 6 355 275 226 221 212 200 186 178 186 182 182 175
164 181 286 353 184 187 336 168 225 258 222 285 302 258 91 29 358 342 336 331 335 331 335 341 343 344 337 349 347 349 353 355 353 352 326 220 214 213 200 184 184 180 178 178
208 174 270 256 283 235 192 189 169 256 274 253 267 276 110 71 356 353 336 326 327 329 331 335 340 341 343 339 339 344 342 343 345 338 332 287 189 191 198 193 179 174 183 184
177 271 299 333 357 16 214 226 245 242 254 249 277 270 131 13 349 348 331 323 323 326 336 337 335 336 333 339 329 331 333 335 333 335 335 328 204 192 198 192 183 179 175 181
171 190 199 214 248 282 277 248 264 253 240 293 256 289 318 339 338 334 324 322 319 326 334 330 330 326 330 316 329 321 323 325 327 327 326 317 328 320 208 197 196 181 181 179
145 220 201 246 258 271 268 269 257 246 242 254 299 294 309 331 331 315 314 315 316 323 329 326 328 321 323 321 314 307 314 310 321 314 314 307 305 304 269 196 202 190 182 182
178 262 217 266 270 271 274 263 262 223 251 268 290 291 1 334 315 317 318 317 315 325 323 322 323 316 317 311 306 308 305 312 302 297 306 301 306 300 332 237 195 179 180 179
164 209 274 276 339 311 288 215 169 211 236 282 288 295 332 318 322 318 313 312 310 323 326 325 318 314 313 303 298 292 285 285 286 302 288 289 297 297 311 264 178 184 186 176
167 159 216 284 352 328 248 99 204 229 267 269 268 298 312 314 305 307 303 326 316 316 325 319 312 309 301 289 283 283 274 276 279 280 281 278 275 302 299 235 183 183 190 191
179 136 264 260 241 288 291 204 197 255 296 235 252 300 296 310 307 290 352 326 317 329 319 313 311 304 299 295 287 281 275 270 267 269 267 266 278 286 289 246 207 170 174 182
137 126 203 157 269 264 236 186 124 216 273 180 302 285 310 321 313 314 325 324 320 328 319 315 314 314 308 304 295 278 270 266 261 263 268 273 267 276 278 270 216 198 183 169
159 163 227 194 241 273 223 151 134 84 252 193 272 288 295 296 269 299 316 317 321 321 322 323 321 320 312 311 305 286 270 259 254 257 263 263 259 253 257 256 231 160 206 171
173 169 199 171 217 257 146 119 164 214 216 224 273 285 282 288 301 313 318 320 330 327 332 330 326 326 322 315 312 304 292 284 263 247 241 251 248 240 251 262 254 206 194 188
228 190 179 178 213 222 195 202 176 174 221 256 259 279 288 295 312 320 320 323 328 327 327 331 328 330 334 335 330 325 311 288 296 264 239 231 209 191 280 248 218 189 187 187
248 174 205 107 233 213 219 233 219 205 217 246 258 276 288 304 320 319 318 325 323 331 332 336 336 339 340 345 344 340 331 330 340 355 8 51 77 57 18 27 29 190 191 178
207 143 196 260 282 281 248 225 200 208 216 251 258 268 293 310 305 307 314 322 323 330 333 339 340 340 343 343 351 350 349 344 5 13 2 52 63 68 63 53 16 351 15 188
184 195 180 226 220 188 248 205 172 192 211 238 263 287 285 296 313 307 314 317 325 333 333 345 343 344 344 345 357 358 357 3 15 20 15 16 63 79 72 85 70 38 46 52